Zurück zum Katalog

DELTA 1 DEB

AktivSSO
NORAD 12181·DEBRIS·🇺🇸 United States

Gestartet Mar 5, 1978 von Vandenberg Space Force Base

Loading…

Nächste Überflüge (nächste 24 Stunden)

TLE

AktuellSource: Space-Track

Epoche: Sep 14, 2026, 11:23 UTC

1 12181U 78026W   26257.47440496  .00000129  00000-0  68674-4 0  9993
2 12181  98.8482 269.1385 0098480  20.0150 340.4850 14.26754131369360

Verfolge DELTA 1 DEB in Echtzeit mit AllMySat

Download on the App Store